Location: Unspecified
(48.7670°N, 0.0000°E)
Time: 04:36:43
(UTC+00:00)

Vanguard 2 Rocket - Pass Details

Date: 10 October 2020
Orbit: 554 x 3326 km, 32.9° (Epoch: 26 October)

Event Time Altitude Azimuth Distance (km) Brightness Sun altitude
Exits shadow 04:30:11 20° 249° (WSW) 4,941 10.0 -17.7°
Maximum altitude 04:40:04 33° 207° (SSW) 4,553 10.1 -16.1°
Drops below altitude 10° 04:56:20 10° 153° (SSE) 6,154 11.4 -13.5°
Sets 05:01:37 0° 145° (SE) 6,979 11.9 -12.6°
